Location: Arthez
(43.0833°N, 0.2500°W)
Time: 22:00:35
(UTC+00:00)

CZ-2C R/B - Pass Details

Date: 23 October 2021
Orbit: 784 x 871 km, 98.2° (Epoch: 06 December)

Event Time Altitude Azimuth Distance (km) Brightness Sun altitude
Rises 18:59:21 0° 6° (N) 3,465 5.9 -21.4°
Reaches altitude 10° 19:01:52 10° 0° (N) 2,518 5.2 -21.9°
Maximum altitude 19:07:07 43° 291° (WNW) 1,188 3.9 -22.9°
Drops below altitude 10° 19:12:15 10° 221° (SW) 2,462 5.5 -23.8°
Sets 19:14:41 0° 215° (SW) 3,380 6.2 -24.2°
